Showing default

COSMOS 249, 3504

Orbit data source: Space-Track

COSMOS 249, 3504 is a payload satellite owned by PKO (CIS) in LEO that was launched on Sun, 20 Oct 1968 UTC via a TSIKLON-2A launch vehicle from the Tyuratam Missile And Space Complex (TTMTR). Payloads include a variety of satellites, spacecraft, and rockets equipped with specific instruments for various scientific and technological missions. These include communications satellites like Starlink; space stations such as the ISS; scientific satellites like the Hubble; Earth observation satellites from companies like Planet Labs, Umbra, and HawkEye 360; GPS; miniature CubeSats for education and research; and military/defense satellites.

Loading next visibility...
COSMOS 249 details
Identifier
3504, 1968-091A
Orbit
LEO
Last TLE update15 hours ago
Origin
Flag of CISPKO (CIS)
ManufacturerTSKBM/KB1
MissionDefense Weapon
Bus & MotorIS, Unknown motor
Mass1,400 kg wet, ~1,400 kg dry
Launch date (UTC)
1968-10-20 (56 years ago)
Launch vehicle
TSIKLON-2A
Launch site
Tyuratam Missile And Space Complex (TTMTR)
Object type
Payload
Rocket body
Debris
Shape & HBRCyl, 4 m
Radar Cross Section5.596 m², Large (>1 m²)

Expand to show TLE details & history

TLE from 15 hours ago
0 COSMOS 249
1  3504U 68091A   24360.85414697  .00000361  00000-0  15681-3 0  9999
2  3504  62.3549 172.7569 0979463 270.1609  78.7353 12.96774208650283
Epoch: 2024-12-25T20:29Z
Definitive object data (Epoch: 2024-12-25T20:29:58.298Z)
Latitude0.00003°
Longitude130.42208°
Altitude1,202.212 km
Speed7.288 km/s
True Right ascension11h 31m 01s
True Declination0° 00' 00"
Sunlit
Object was in daylight at TLE epoch
Visualization TLE readout
Latitude3.46085°
Longitude130.69036°
Altitude1,250.828 km
Speed7.242 km/s
Apparent Right ascension12h 55m 55s
Apparent Declination-49° 55' 29"
Sunlit
Object is in daylight
Visualization observer readout
Local Sidereal Time10:40:48
Azimuth158.954° S
Elevation-4.622°
Doppler factor1
Orbital elements
Apogee altitude2,023.198 km
Perigee altitude524.255 km
Semi-major axis7,651.863 km
Eccentricity0.0979463
Inclination62.3549°
RAAN172.7569°
Arg. of periapsis270.1609°
True anomaly89.94028°
Mean anomaly78.7353°
Eccentric anomaly84.31965°
Mean motion3.24259 °/min
BSTAR0.00015681
Orbital period111.02 mins
Loading maneuver chart data...

COSMOS 249 Visibility forecast

Observer location: undefined°, undefined

Span
Click to sort rows by Start time (UTC) header in descending order
Start Az.
Max El. time (UTC)
Max El. Az.
Max El.
End time (UTC)
End Az.
11 mins2024-12-26 11:25:28.814Z132.36° SE2024-12-26 11:30:28.814Z98.705° ESE16.748°2024-12-26 11:36:28.814Z63.999° ENE
18 mins2024-12-26 13:16:28.814Z200.251° SSW2024-12-26 13:23:28.814Z131.608° SE43.826°2024-12-26 13:34:28.814Z38.599° NE
18 mins2024-12-26 15:12:28.814Z261.129° W2024-12-26 15:20:28.814Z326.86° NNW34.122°2024-12-26 15:30:28.814Z29.887° NE
16 mins2024-12-26 17:12:28.814Z308.137° NW2024-12-26 17:19:28.814Z350.536° N22.423°2024-12-26 17:28:28.814Z40.06° NE
17 mins2024-12-26 19:11:28.814Z330.15° NNW2024-12-26 19:19:28.814Z17.265° NNE24.846°2024-12-26 19:28:28.814Z72.238° E
20 mins2024-12-26 21:07:28.814Z328.842° NNW2024-12-26 21:18:28.814Z51.069° ENE39.986°2024-12-26 21:27:28.814Z121.407° SE
17 mins2024-12-26 23:04:28.814Z313.847° NW2024-12-26 23:13:28.814Z248.391° W37.149°2024-12-26 23:21:28.814Z178.724° S
|